This is the latest recevied weather packets stored in our database for station/object N5JXS. If no packets are shown the sender has not sent any weather packets the latest 10 day(s).
| Time | Temp. | Humidity | Pressure | Rain* | Wind** | Luminosity | Snow |
|---|---|---|---|---|---|---|---|
| 1777420147 | 10° C | 52% | 1020.2 hPa | 0 mm | - | 75 W/m² | - |
| 1777419843 | 10° C | 50% | 1020.1 hPa | 0 mm | - | 201 W/m² | - |
| 1777419541 | 9.44° C | 51% | 1020 hPa | 0 mm | - | 219 W/m² | - |
| 1777419239 | 10° C | 51% | 1020 hPa | 0 mm | - | 236 W/m² | - |
| 1777418931 | 10° C | 51% | 1019.6 hPa | 0 mm | - | 225 W/m² | - |
| 1777418626 | 10° C | 52% | 1019.6 hPa | 0 mm | - | 110 W/m² | - |
| 1777418322 | 9.44° C | 52% | 1019.6 hPa | 0 mm | - | 88 W/m² | - |
| 1777418018 | 9.44° C | 53% | 1019.6 hPa | 0 mm | - | 79 W/m² | - |
| 1777417714 | 9.44° C | 55% | 1019.5 hPa | 0 mm | - | 74 W/m² | - |
| 1777417410 | 9.44° C | 55% | 1019.6 hPa | 0 mm | - | 113 W/m² | - |
| 1777417106 | 10° C | 55% | 1019.4 hPa | 0 mm | - | 77 W/m² | - |
| 1777416801 | 10° C | 55% | 1019.1 hPa | 0 mm | - | 97 W/m² | - |
| 1777416497 | 10° C | 54% | 1019.1 hPa | 0 mm | - | 120 W/m² | - |
| 1777416194 | 10° C | 59% | 1018.9 hPa | 0 mm | - | 133 W/m² | - |
| 1777415888 | 9.44° C | 60% | 1018.9 hPa | 0 mm | - | 154 W/m² | - |
| 1777415584 | 8.89° C | 61% | 1019.1 hPa | 0 mm | - | 144 W/m² | - |
| 1777415280 | 9.44° C | 60% | 1019.2 hPa | 0 mm | - | 197 W/m² | - |
| 1777414975 | 9.44° C | 58% | 1019.1 hPa | 0 mm | - | 157 W/m² | - |
| 1777414675 | 9.44° C | 58% | 1019.1 hPa | 0 mm | - | 181 W/m² | - |
| 1777414370 | 8.89° C | 61% | 1019 hPa | 0 mm | - | 181 W/m² | - |
| 1777414065 | 8.89° C | 62% | 1018.9 hPa | 0 mm | - | 157 W/m² | - |
| 1777413764 | 8.89° C | 63% | 1019 hPa | 0 mm | - | 188 W/m² | - |
| 1777413460 | 8.89° C | 64% | 1019 hPa | 0 mm | - | 177 W/m² | - |
| 1777413157 | 8.89° C | 64% | 1019 hPa | 0 mm | - | 162 W/m² | - |
| 1777412852 | 8.89° C | 65% | 1019.4 hPa | 0 mm | - | 198 W/m² | - |
* Rain latest hour (hover to see other rain measurements)
** Current wind speed in m/s (hover to see current wind gust speed)